User: anonymous   Login
Location: Sperry Observatory
(40.6664°N, 74.3236°W)
Time: 15:34:55
(UTC-05:00)
Language:

UOSAT-12 - Orbit

View from above orbital plane
View from above orbital plane
View from above satellite
View from above satellite

Ground track
Ground track

The orbit data is extracted from the following two-line orbital elements,

1 25693U 99021A   17328.25036118 -.00000054 +00000-0 +12197-4 0  9997
2 25693 064.5563 352.3474 0045556 290.9603 068.6630 14.80770526003550
Epoch (UTC): 24 November 2017 06:00:31
Eccentricity: 0.0045556
inclination: 64.5563°
perigee height: 595 km
apogee height: 659 km
right ascension of ascending node: 352.3474°
argument of perigee: 290.9603°
revolutions per day: 14.80770526
mean anomaly at epoch: 68.6630°
orbit number at epoch: 355

The dashed part of the orbit path shows where the satellite is in the earth's shadow,  

DLR